Theta_e
301 302 303 306 306 305 305 305 306 307 309 310 306 305 303 301 293 297 310 314 311 313 317 320 322 323 326 326 326 327 329 330 329 329 329 330 330 331 332 332 333 334 334 336 337 338 339 339 339 339 340 341 344 346 348 349 350 351 352 352 352 352 352 352 351 352 351 351 350 350 351 349 349 350 351 351 352 351 352 351 351 352 354 354 354 354 354
301 301 305 306 305 304 304 303 305 307 309 311 312 311 312 312 311 313 313 313 312 315 317 321 324 328 328 328 330 329 328 327 328 327 327 329 330 332 332 333 334 334 335 336 337 337 338 339 339 340 341 342 343 345 346 348 349 350 350 351 351 351 351 352 352 350 348 349 348 349 348 348 348 349 349 351 352 353 351 350 350 352 352 352 352 352 353
300 302 306 304 302 303 302 302 303 306 309 311 311 312 313 315 313 314 313 312 311 317 320 322 328 329 328 327 325 326 327 328 328 327 327 328 329 330 332 333 334 335 336 337 337 338 338 339 339 340 341 342 344 345 347 348 349 349 349 348 346 344 344 345 346 346 346 346 346 346 346 347 348 348 348 349 351 352 352 352 351 351 352 350 350 352 352
295 299 303 301 299 300 300 300 301 302 306 306 309 309 312 309 309 311 311 309 309 317 321 325 325 323 322 321 321 323 325 327 327 327 328 329 329 329 330 333 333 334 335 335 336 338 339 340 341 341 341 342 344 344 346 347 348 349 346 343 341 343 343 343 343 344 345 345 345 345 346 346 347 347 348 349 349 351 351 349 351 351 348 349 350 351 353
290 297 301 299 298 293 291 296 299 301 306 309 312 313 315 313 311 304 303 308 316 318 322 320 319 319 319 318 319 319 322 324 325 324 325 326 329 331 331 332 333 333 334 334 335 337 338 339 339 341 343 342 342 344 345 347 348 345 343 342 342 342 343 343 344 344 343 343 344 345 345 346 347 348 348 348 349 349 349 351 351 349 349 349 349 351 351
287 295 297 298 293 287 286 299 304 303 306 308 308 309 312 316 315 311 315 315 318 319 320 317 315 315 316 318 319 320 320 322 323 323 323 325 326 329 332 333 333 333 334 334 333 334 335 338 339 341 342 343 343 345 347 347 345 343 343 342 341 342 343 342 342 344 343 344 345 345 345 346 345 347 349 349 350 351 351 350 348 348 349 348 348 349 349
289 292 295 291 287 288 301 310 313 314 313 313 312 313 314 316 318 317 315 316 316 317 318 317 316 317 317 317 317 318 319 321 321 321 322 323 324 325 327 328 329 329 330 330 330 330 332 334 335 337 339 340 341 342 343 344 344 342 342 341 341 342 341 341 342 342 343 344 344 344 345 344 344 344 345 346 348 349 349 348 347 347 347 346 345 347 348
288 288 287 283 284 296 304 307 313 315 312 310 307 307 312 314 316 317 314 315 316 317 317 318 319 317 317 317 316 316 318 319 319 320 321 322 323 323 324 325 325 327 328 328 329 328 331 330 331 332 333 335 336 338 341 340 339 340 339 339 339 339 338 339 339 340 341 341 341 342 343 342 342 341 342 344 345 348 348 347 347 348 348 347 345 344 347
286 286 285 288 295 296 302 302 306 304 301 301 301 296 301 310 315 317 315 315 316 316 317 317 317 317 317 315 313 315 317 318 319 320 320 322 322 323 323 324 324 326 327 327 328 328 327 327 327 328 330 331 331 330 334 335 335 335 336 335 336 336 336 337 337 338 338 339 340 339 340 340 340 340 340 341 343 346 346 345 346 345 344 345 345 346 345
289 287 285 287 287 286 293 300 305 308 308 308 307 303 299 305 314 318 316 314 315 316 315 315 314 311 307 307 309 314 317 317 318 319 320 320 321 321 322 324 324 324 325 325 327 326 325 325 326 328 329 328 327 326 330 332 333 333 333 333 334 335 335 335 335 336 337 338 337 337 338 337 337 338 339 341 341 344 344 343 342 343 344 343 343 344 344
288 287 285 284 284 287 296 300 303 307 308 310 309 299 293 300 311 317 316 315 316 315 314 312 312 304 302 304 308 314 318 315 317 317 318 319 319 320 320 321 322 323 323 324 324 324 324 323 325 326 327 327 325 324 324 324 325 326 329 333 334 334 335 336 337 337 337 336 336 336 336 336 336 337 338 341 343 343 342 342 342 344 345 342 340 339 339
289 284 282 286 287 292 299 300 303 307 308 307 300 290 290 301 311 316 316 315 315 314 313 311 308 304 301 303 308 314 316 314 315 315 315 316 317 318 319 319 319 319 320 319 319 319 319 321 324 324 324 324 325 323 324 324 323 323 324 325 328 332 334 335 335 335 334 335 335 334 334 335 335 336 339 340 340 341 341 342 342 343 346 341 335 332 332
292 293 286 287 291 299 303 303 304 306 307 299 289 285 297 306 312 316 317 316 315 314 313 313 310 309 307 308 312 314 313 313 313 314 315 315 317 317 318 318 320 316 315 315 315 316 317 320 322 323 323 322 322 323 323 322 322 323 324 326 327 329 331 333 335 336 335 334 333 333 337 336 338 337 336 337 339 340 340 340 340 339 337 333 331 331 331
289 284 286 288 288 295 301 303 306 308 302 289 288 295 300 311 315 318 319 316 316 316 316 312 310 310 312 315 312 312 311 311 311 312 312 313 314 315 319 321 319 313 313 312 312 313 314 316 320 322 322 322 322 322 321 321 323 326 326 326 327 327 328 329 331 333 335 338 339 339 339 337 334 332 334 337 338 336 336 334 333 332 331 330 327 327 327
289 284 285 285 283 297 305 306 304 306 296 294 296 304 313 316 317 318 316 316 315 315 312 313 313 313 312 312 311 311 311 311 310 310 311 311 311 312 313 313 316 313 310 310 310 310 311 313 315 319 323 322 320 319 317 320 324 326 324 323 325 326 327 327 330 329 329 331 331 331 330 330 328 327 329 333 335 336 333 331 329 327 327 326 325 324 325
285 285 285 285 290 297 302 303 297 300 303 305 306 311 312 315 316 314 313 313 315 315 314 313 313 312 311 311 311 311 311 311 311 311 311 311 312 312 313 314 314 314 309 309 309 309 310 311 311 313 318 320 320 318 315 319 324 325 322 322 323 324 326 323 323 324 324 323 323 324 326 326 325 323 324 327 330 334 333 330 327 325 325 325 324 324 323
290 288 288 293 296 300 304 304 303 305 311 311 313 315 314 315 314 314 313 313 315 316 315 314 312 311 312 311 311 311 310 310 310 310 310 310 311 311 311 313 314 311 308 308 308 309 310 311 311 312 313 317 319 316 316 322 324 324 323 324 322 320 320 320 320 319 319 318 318 318 319 321 322 323 324 325 325 327 333 329 326 324 325 326 325 324 321
298 299 299 303 305 307 309 310 310 312 314 315 316 318 316 314 316 316 314 314 315 315 315 313 312 312 311 311 310 310 310 310 311 312 310 310 311 311 311 310 312 309 308 308 308 308 309 311 311 315 313 314 315 315 319 321 323 324 325 325 323 321 320 319 317 318 316 316 316 316 316 317 318 319 321 325 326 325 327 330 328 326 327 327 326 323 319
293 293 299 303 306 305 309 310 311 312 312 312 314 315 315 316 317 317 317 316 316 315 315 314 312 311 312 310 310 310 309 309 309 310 309 309 310 311 312 315 313 309 308 308 309 309 309 310 312 313 313 315 315 317 320 320 322 325 326 325 326 324 323 323 322 321 319 317 315 315 314 313 314 316 317 318 320 323 322 324 328 330 330 329 326 323 320
292 294 299 302 303 304 305 305 310 311 311 313 314 314 316 317 318 318 318 318 316 316 314 314 313 312 312 311 310 309 309 309 308 308 309 309 310 310 310 313 311 307 307 308 310 311 311 310 310 312 312 313 313 315 317 319 321 325 326 324 321 321 322 323 322 322 324 325 317 313 313 312 311 312 314 315 314 314 314 316 321 321 322 323 321 320 318
298 300 301 302 305 307 306 307 309 309 312 315 314 315 317 318 318 317 318 319 318 317 316 316 314 313 312 312 311 310 309 308 308 308 308 309 310 309 309 312 313 306 311 312 311 313 311 309 309 310 311 312 313 314 316 317 320 323 324 324 321 319 320 321 322 323 317 316 315 314 313 312 310 309 309 312 314 314 313 311 312 316 319 319 319 316 317
295 298 301 303 301 299 303 306 309 310 311 314 313 314 316 317 317 317 317 318 320 319 318 317 316 314 313 312 311 310 310 309 309 308 309 310 310 311 311 312 311 314 315 309 311 313 311 310 311 312 311 311 313 314 316 316 318 322 324 321 319 319 320 320 321 320 318 316 317 316 313 312 311 311 308 302 305 313 312 310 303 298 302 314 314 314 311
296 300 303 307 303 303 307 309 309 309 311 314 314 314 314 314 316 317 317 316 316 318 318 318 318 316 315 313 312 311 310 310 309 309 310 311 311 311 313 311 311 310 311 316 315 315 312 315 314 313 314 312 312 314 314 314 316 318 319 321 319 319 323 323 324 323 319 315 315 314 314 314 315 314 312 309 296 298 306 306 299 294 293 295 301 307 317
300 303 306 306 302 304 306 308 309 310 311 314 313 311 313 315 316 317 318 318 316 314 316 318 319 318 317 315 313 312 312 312 311 311 310 311 312 313 314 311 311 313 314 315 315 315 311 314 312 312 313 312 312 314 314 313 314 315 317 320 318 319 320 324 326 324 321 322 320 317 315 316 316 315 313 312 312 300 296 300 299 294 293 293 293 294 296
302 302 307 306 304 306 308 309 309 310 312 314 312 311 312 314 314 317 316 315 316 317 316 315 316 318 317 315 314 314 314 314 314 312 315 318 317 314 313 313 313 315 315 315 313 311 310 312 315 315 312 313 312 313 314 314 315 317 316 317 316 316 320 324 324 329 325 323 322 319 318 318 317 315 313 314 312 313 311 297 296 295 294 294 294 293 294
304 306 307 307 307 307 309 310 310 311 311 313 313 313 317 319 316 316 315 315 314 315 315 315 315 315 317 315 314 315 316 317 321 319 314 313 314 316 315 315 315 315 313 312 312 312 311 314 313 314 316 314 313 311 313 313 312 314 313 312 312 316 320 320 317 317 317 318 319 318 318 320 318 317 319 316 314 314 314 314 314 306 298 294 294 298 296
307 309 309 308 307 307 309 311 309 310 311 312 315 314 315 319 320 313 312 312 313 314 315 315 315 315 316 317 319 320 319 319 318 315 315 316 317 317 316 316 316 318 319 316 314 317 321 321 319 316 315 314 312 313 315 311 310 310 310 311 310 318 326 327 313 316 316 315 315 317 320 319 319 323 322 323 320 319 316 315 314 313 314 315 304 296 305
308 309 311 306 304 307 309 309 310 311 311 313 315 314 312 312 312 312 311 311 312 312 314 317 319 319 318 318 317 313 312 311 310 310 311 312 314 314 314 316 315 316 317 318 315 317 319 316 315 315 315 314 314 313 313 313 313 312 312 311 313 314 313 318 318 315 316 313 312 312 312 313 319 324 326 327 327 325 319 319 319 316 316 314 316 312 301
307 309 308 308 310 310 309 308 310 311 312 313 314 312 312 311 310 311 310 310 310 311 313 313 315 317 315 312 311 309 308 308 308 308 308 310 312 311 313 315 315 316 316 315 313 313 314 314 314 314 316 315 314 314 314 314 314 313 315 316 315 314 314 314 315 315 316 316 315 316 320 321 319 318 324 324 326 326 323 321 321 319 315 315 315 317 315
306 307 306 307 308 309 309 308 309 310 312 311 310 310 311 311 309 308 307 306 309 312 310 310 311 311 310 308 307 306 306 306 306 307 307 307 308 309 312 313 313 313 313 314 313 312 313 313 313 314 316 316 315 315 314 314 314 314 313 313 312 313 313 312 313 314 313 314 320 325 323 321 320 319 322 322 324 325 323 322 323 320 315 315 316 314 312
306 305 306 307 308 309 309 308 308 310 310 310 310 309 309 310 309 306 305 304 306 308 307 309 309 307 306 306 305 305 306 306 306 306 306 306 308 309 312 311 311 311 312 312 311 310 311 311 311 313 314 312 314 315 314 314 314 313 313 312 311 316 319 320 321 314 312 318 322 322 322 321 317 323 325 321 319 320 320 323 321 318 316 316 316 314 312
306 305 306 306 307 307 306 307 308 309 309 309 309 308 308 308 307 305 304 304 306 308 306 306 306 306 305 305 306 307 306 305 306 307 308 309 310 309 311 315 316 315 309 308 308 309 309 308 310 311 309 310 312 313 313 314 313 313 313 316 318 314 314 319 320 320 321 321 321 320 323 321 318 320 325 322 320 319 318 317 317 316 315 316 313 311 311
306 304 302 303 305 305 305 305 307 307 308 308 309 310 309 310 309 308 306 306 306 306 307 307 306 305 305 306 306 305 305 305 305 307 308 308 308 308 308 308 309 305 305 308 311 310 310 311 312 311 310 311 313 314 315 314 313 313 313 313 314 314 320 318 316 317 318 319 319 318 315 319 318 319 318 319 318 318 317 318 318 318 316 313 308 306 306
308 308 308 307 308 306 306 305 306 308 308 309 309 309 309 308 309 308 306 306 306 306 307 307 306 305 306 305 304 303 303 304 305 306 305 306 307 307 308 309 307 307 308 307 306 306 305 308 308 309 309 310 313 314 315 315 313 313 313 313 314 314 315 317 317 318 317 317 317 318 318 320 318 316 321 321 319 317 318 318 318 316 312 309 306 307 303
312 311 311 310 310 311 311 309 307 307 307 307 305 307 308 308 307 307 308 306 305 306 307 306 305 305 304 303 303 303 303 304 305 305 304 305 306 306 306 305 304 306 307 305 303 306 307 307 307 308 309 311 313 313 314 314 314 314 313 314 318 318 318 319 318 317 317 317 318 317 316 317 317 319 320 319 317 318 319 317 316 313 310 308 308 309 307
310 309 308 309 309 310 310 309 309 308 308 308 307 308 308 307 306 308 309 307 305 306 306 305 305 304 303 303 303 303 302 303 303 303 304 305 305 304 304 304 304 305 304 303 304 304 305 306 317 322 320 317 317 315 314 317 316 313 316 316 317 318 319 320 319 320 320 318 316 316 316 317 319 319 319 317 317 318 317 316 314 313 309 308 308 307 305
310 310 309 309 309 309 309 308 308 307 307 307 306 307 308 307 307 308 308 305 305 306 305 304 303 303 303 303 302 302 303 303 304 304 304 304 303 304 304 305 305 304 305 302 305 304 305 308 318 318 313 312 313 311 314 322 320 315 315 314 315 316 317 316 316 316 315 316 316 315 317 317 317 317 318 314 314 315 315 314 314 311 309 310 308 307 305
309 310 310 309 309 308 308 308 308 308 307 307 308 309 309 306 306 306 305 305 306 305 305 304 303 303 303 303 303 303 303 303 303 303 304 304 304 305 305 306 305 303 303 302 303 305 306 312 316 312 309 309 309 308 313 321 321 315 312 313 315 315 316 315 314 315 314 312 316 312 311 311 311 312 311 311 312 313 312 313 313 311 311 309 306 306 305
308 308 309 309 309 309 308 308 308 308 308 306 305 306 308 307 306 305 304 304 304 306 304 303 303 303 303 303 303 303 303 302 303 303 303 302 304 303 304 304 305 305 304 303 305 308 309 313 312 307 307 306 306 306 312 317 316 307 308 310 312 314 315 315 313 313 314 314 312 312 311 310 309 309 309 309 309 310 311 311 310 311 309 305 305 304 304
308 309 308 309 308 308 308 307 307 307 307 307 307 305 306 306 304 304 303 303 305 308 304 303 303 303 303 303 303 303 303 303 303 302 302 302 304 303 304 305 305 304 306 312 309 306 312 314 311 305 304 303 304 306 311 313 311 307 306 307 310 311 312 312 311 311 312 312 313 314 313 313 310 311 311 311 310 310 309 308 307 306 306 304 304 303 303
309 308 308 309 308 308 307 307 306 306 306 306 306 306 306 304 304 304 304 304 303 304 304 304 304 303 302 302 302 302 302 304 302 301 301 302 302 303 304 303 301 301 305 309 310 312 313 312 310 305 303 303 304 311 307 309 304 305 308 309 309 310 310 311 311 311 311 312 312 310 310 310 311 310 309 308 307 306 306 306 305 304 303 302 301 301 301
308 308 308 308 307 307 306 306 305 304 303 304 306 305 304 305 305 304 304 303 303 303 303 304 306 303 300 301 302 303 300 300 300 301 302 304 303 302 302 302 301 301 311 311 309 308 305 304 307 308 303 306 310 311 309 305 302 304 306 308 309 310 310 310 310 309 309 308 308 308 309 307 306 306 306 306 305 304 302 302 302 303 302 302 301 301 301
308 308 307 307 306 306 305 305 305 304 303 303 303 304 304 304 304 303 303 303 303 303 304 306 308 307 305 302 302 301 300 298 298 299 301 303 304 302 302 302 302 302 312 310 304 302 304 303 303 306 310 309 308 309 307 303 303 304 306 307 310 310 309 309 308 308 305 304 304 304 305 304 303 303 302 301 301 300 300 299 299 300 301 299 299 300 300
309 308 307 306 305 306 305 305 304 304 302 301 302 303 303 304 304 304 304 303 303 304 302 301 301 301 301 301 301 300 300 298 299 298 300 299 300 301 301 301 301 306 311 308 306 304 304 305 306 309 310 309 309 307 304 301 302 303 305 306 306 307 306 304 305 305 305 304 303 302 304 304 301 302 300 299 299 298 299 299 299 299 299 298 298 298 298
308 307 307 306 306 305 304 304 304 303 302 302 302 302 303 303 303 304 304 303 303 303 303 301 301 301 300 301 302 301 301 300 300 300 300 299 299 300 301 307 307 307 308 308 305 304 303 305 309 310 310 309 308 304 300 301 303 304 303 304 304 305 304 304 303 303 302 302 301 301 301 300 301 299 299 299 299 299 298 298 298 299 299 298 298 298 298
307 307 307 309 305 304 304 304 303 302 302 302 302 303 303 302 302 303 303 303 303 302 301 301 301 301 300 299 299 299 299 299 299 299 300 300 301 300 301 307 306 308 307 306 305 302 302 311 310 308 308 307 305 300 299 301 299 298 300 300 302 302 302 301 301 301 301 300 300 299 299 299 299 299 299 299 299 299 299 300 299 299 299 298 298 298 299
307 306 306 305 303 303 303 302 303 302 302 302 301 300 302 302 303 302 303 303 302 301 300 300 300 299 299 301 300 300 299 299 300 300 300 301 303 306 308 308 308 307 306 303 302 303 306 308 309 307 307 306 303 298 298 298 298 299 299 300 301 301 301 300 300 300 300 300 301 301 301 300 300 300 301 300 300 301 301 300 299 299 299 300 299 300 299
307 305 304 303 302 302 303 303 302 301 302 302 301 302 302 302 302 301 301 301 300 300 300 299 299 298 299 300 301 301 301 302 299 297 297 301 300 302 302 301 306 308 307 307 306 307 308 308 308 307 306 306 299 297 299 300 301 299 299 299 298 298 298 298 299 300 301 302 301 299 299 299 300 300 300 299 300 300 299 299 299 299 299 299 299 299 299
306 304 304 303 303 303 302 302 302 303 301 302 303 301 302 301 301 301 300 300 299 300 299 299 299 299 301 302 302 299 300 301 298 297 298 300 302 301 300 307 309 307 306 303 301 302 306 308 307 306 304 302 297 297 296 298 302 304 302 300 301 301 299 298 298 299 300 300 300 300 300 299 299 299 299 300 300 300 300 300 300 300 300 300 300 300 300
304 304 303 302 302 302 302 302 302 301 301 303 301 302 302 301 300 300 302 300 300 303 299 299 299 299 297 298 301 297 297 300 300 299 302 302 300 301 305 305 306 307 306 301 301 301 306 305 306 306 303 297 297 301 299 297 295 301 302 305 303 300 302 301 302 301 300 301 299 300 300 300 298 299 299 299 299 299 300 300 299 300 300 300 300 300 300
304 304 303 304 304 304 303 303 302 302 302 302 302 303 303 302 302 303 302 302 302 302 299 299 299 297 296 298 298 299 298 299 302 306 303 302 303 305 306 305 306 308 306 305 302 300 296 295 298 304 300 297 294 299 301 302 302 302 305 304 303 303 302 302 302 301 300 300 299 300 300 300 298 299 299 299 299 300 300 300 299 300 300 300 300 299 299
305 304 304 303 303 302 302 302 303 303 303 303 303 304 303 303 304 303 303 306 302 301 300 299 299 298 296 299 302 300 299 300 305 306 306 305 305 304 306 307 305 306 305 303 299 296 296 299 303 304 303 299 297 298 304 305 304 302 304 305 305 303 304 303 303 301 301 302 301 300 301 300 298 299 299 299 299 300 300 300 300 300 300 300 299 299 299
Wind_Speed
1 2 3 2 4 5 4 6 8 13 11 13 8 4 2 3 3 8 7 6 5 3 4 3 4 6 7 7 4 3 1 4 6 4 2 3 5 2 3 2 3 3 6 7 5 4 5 7 8 10 10 10 9 7 7 7 7 9 9 10 11 11 10 11 11 10 8 8 8 8 7 7 7 7 7 6 6 5 4 4 4 6 6 7 7 6 6
4 4 5 2 5 3 7 9 9 8 11 11 10 9 3 7 10 11 11 10 8 4 2 4 5 4 5 3 4 4 6 7 7 6 3 4 5 4 2 3 4 4 2 1 3 6 7 7 7 7 9 10 11 11 9 8 8 8 8 10 10 10 10 10 7 7 8 7 7 7 7 8 7 7 6 6 5 5 5 5 5 5 5 6 6 7 7
2 2 2 3 4 7 9 7 9 9 6 8 10 8 8 10 11 10 10 10 6 1 2 4 2 4 5 6 8 8 8 9 9 9 8 9 8 8 7 7 5 5 6 5 3 4 6 6 6 5 6 7 8 9 9 9 8 7 6 5 4 6 5 6 2 3 5 6 6 7 7 6 5 6 6 5 5 5 5 4 4 5 5 6 7 7 8
0 3 2 6 3 5 8 6 8 8 6 6 6 4 4 2 6 7 7 6 3 3 2 3 7 7 8 8 8 8 9 10 10 10 9 8 7 8 7 6 6 6 6 6 6 6 6 5 5 5 5 6 7 10 9 10 8 7 6 7 7 7 7 5 3 6 4 0 5 6 6 7 7 6 6 6 5 4 4 5 5 5 6 7 6 6 5
2 1 6 6 6 6 5 3 3 0 1 2 4 5 8 6 2 1 3 4 2 1 2 6 6 6 7 7 7 6 8 8 9 10 10 11 9 7 7 7 6 6 6 5 6 6 5 5 5 4 3 5 8 8 9 9 8 11 12 10 9 6 5 8 10 7 4 5 6 4 4 4 4 4 3 2 2 2 4 4 3 5 6 6 6 6 6
3 1 4 3 2 1 2 2 2 3 3 3 5 4 5 5 2 2 2 4 5 3 4 5 3 6 5 3 4 6 5 6 9 11 11 10 10 9 8 8 9 8 7 7 7 8 8 8 7 6 4 4 5 5 5 4 6 8 10 11 12 9 4 1 2 5 6 6 4 1 1 2 2 2 4 2 3 2 2 1 1 1 2 1 2 2 3
3 2 2 3 2 5 2 1 3 6 7 5 8 6 5 4 5 7 7 6 6 6 6 6 5 4 5 8 9 9 8 7 7 9 8 8 8 10 11 11 10 9 8 8 8 9 8 7 7 6 6 6 5 3 3 3 3 5 6 8 8 9 8 6 3 3 3 2 3 5 5 4 4 4 2 2 2 1 1 2 2 3 3 7 6 7 6
3 4 1 2 4 3 3 2 2 3 3 4 4 3 2 2 3 4 5 5 6 7 7 5 2 4 6 7 8 9 9 8 7 8 8 8 9 9 8 8 8 7 7 8 8 8 8 9 9 9 7 8 9 8 2 4 5 5 6 5 4 5 6 6 5 4 6 6 2 3 5 5 4 3 2 2 1 2 3 3 3 3 4 5 6 5 5
3 2 4 1 3 2 1 1 1 2 2 1 1 1 2 4 2 2 6 6 6 6 6 5 5 4 5 7 6 8 8 8 7 7 7 7 7 7 8 8 8 7 7 8 8 7 9 10 10 10 8 8 7 10 9 5 10 9 9 8 7 7 6 6 6 6 7 6 5 5 4 3 0 2 2 2 2 2 3 2 1 3 3 2 3 3 1
4 6 3 2 1 1 6 6 4 2 3 2 4 2 1 2 4 5 7 7 7 8 6 5 1 2 5 6 4 6 7 7 6 7 7 8 8 8 7 7 7 7 7 7 8 8 10 11 10 8 9 9 12 10 6 10 11 9 8 8 7 8 8 6 6 5 5 5 6 6 5 4 1 3 5 4 4 4 3 2 3 2 0 0 2 1 1
3 4 5 3 4 5 6 6 3 2 0 5 4 2 2 3 8 8 9 9 8 9 8 4 1 2 2 2 4 4 4 5 5 6 7 7 7 7 7 7 7 8 8 8 8 10 11 12 10 9 9 10 11 10 10 10 10 10 8 6 6 6 7 7 7 6 5 6 6 6 4 3 3 3 3 4 3 2 0 2 1 1 3 3 2 4 5
1 5 3 2 3 1 2 6 3 1 1 0 2 1 3 5 7 8 9 10 10 8 5 5 3 4 3 5 5 1 2 4 4 5 6 6 7 7 7 7 7 7 7 10 11 10 10 9 8 8 8 10 11 10 9 10 11 10 8 7 6 5 6 8 5 4 6 8 7 6 4 3 2 1 1 0 2 3 3 2 1 2 1 3 4 5 5
2 5 0 2 3 3 3 2 4 1 1 3 2 3 3 2 8 7 8 9 8 6 6 4 2 5 3 4 4 2 2 5 6 6 5 6 6 7 7 7 7 7 8 8 8 8 7 8 8 7 7 9 9 8 8 10 9 7 6 5 5 6 5 3 3 5 6 6 7 5 3 3 3 3 2 2 3 3 3 2 3 3 4 5 5 5 6
2 2 3 4 3 5 2 2 0 0 3 1 4 5 1 4 6 4 5 6 5 6 7 4 3 3 4 7 5 5 4 5 3 4 5 6 8 7 6 7 6 6 7 9 10 10 9 9 8 7 8 9 8 8 9 9 7 4 4 4 3 4 6 7 7 8 8 7 6 4 3 3 4 5 4 5 6 6 6 5 5 5 5 5 4 6 6
2 3 3 1 1 1 2 3 3 1 2 5 4 2 2 2 7 7 5 5 5 8 5 4 7 7 6 7 7 6 4 5 5 5 6 6 6 6 7 8 7 6 8 8 8 8 7 7 7 7 9 9 9 9 11 9 6 5 5 5 6 7 7 8 8 8 8 8 6 6 6 6 6 6 6 6 6 5 5 6 6 6 6 6 6 7 6
3 2 2 2 3 2 1 4 4 4 4 1 3 3 4 2 5 5 6 2 5 7 11 9 7 6 7 5 6 6 5 6 5 5 5 5 5 5 6 6 5 6 7 6 7 8 8 8 8 8 8 9 8 10 10 8 6 6 6 7 6 8 7 7 7 7 6 7 6 6 6 6 7 7 7 6 5 4 4 5 5 6 5 5 5 5 5
2 3 3 2 4 4 3 4 3 2 1 1 4 5 4 5 2 2 6 6 5 8 10 9 9 6 4 6 6 7 5 5 5 5 3 4 5 5 6 5 4 6 6 6 6 8 7 8 8 8 8 9 10 10 8 6 8 7 7 7 7 7 7 6 6 5 6 7 7 6 6 6 6 5 5 4 4 4 3 4 5 5 4 4 4 4 4
2 1 4 2 1 0 0 1 2 2 2 2 2 6 5 2 3 4 8 7 8 7 8 11 4 6 7 7 4 6 6 6 5 3 3 4 4 5 5 5 5 4 5 6 7 7 7 7 7 6 7 8 9 5 5 5 5 6 7 8 8 7 7 7 7 6 7 7 7 7 7 6 6 5 3 3 3 3 3 4 4 4 4 4 4 3 3
4 1 2 1 0 2 1 1 2 1 2 2 2 5 4 4 6 7 8 10 9 8 6 8 9 7 6 6 4 4 5 6 5 5 4 2 2 3 4 2 2 3 4 5 5 5 6 7 6 6 7 7 5 5 6 6 5 5 7 7 6 5 6 6 5 5 7 5 5 6 6 5 6 7 6 5 4 4 4 4 4 4 4 4 4 3 3
2 2 2 2 3 3 3 2 1 3 3 4 3 3 4 5 5 8 8 9 8 6 7 8 10 7 6 8 6 5 4 4 5 5 5 4 2 1 1 2 3 3 4 3 3 4 5 5 6 6 6 6 6 6 6 5 5 5 6 5 6 5 5 4 4 4 5 7 7 5 5 6 5 5 6 5 5 6 6 5 4 4 4 4 4 3 3
1 1 2 1 1 1 1 1 1 1 5 6 4 4 6 7 8 7 5 5 8 6 8 7 9 8 4 5 7 7 5 4 3 4 4 4 4 4 3 1 1 4 2 4 3 3 2 3 4 5 5 6 6 7 6 5 5 6 6 5 5 5 4 5 4 4 4 4 4 4 5 5 5 5 3 3 5 5 5 3 4 4 4 4 4 3 3
2 6 6 5 4 2 3 4 5 4 3 6 6 5 6 6 7 6 7 5 3 5 7 8 8 9 6 4 5 7 6 6 5 4 3 3 3 3 2 2 2 2 3 4 4 3 2 3 4 4 4 5 5 6 6 5 5 5 4 4 5 5 4 4 4 4 3 3 3 4 4 4 4 5 8 8 5 4 3 7 8 7 4 4 3 2 4
5 8 6 9 4 2 5 8 5 3 3 6 8 6 6 4 5 6 8 7 5 5 3 4 7 7 7 6 4 4 5 5 5 4 5 4 2 2 1 1 1 2 2 2 2 3 1 2 3 4 4 5 4 5 5 5 5 5 4 4 4 4 4 4 4 3 3 3 3 4 3 3 4 5 4 5 7 8 8 7 7 8 9 8 9 7 5
3 5 10 9 4 6 5 5 5 6 4 5 7 4 4 7 7 6 6 6 7 4 4 2 2 7 6 6 6 5 2 2 3 2 2 1 1 1 1 1 1 0 1 2 2 2 1 2 2 3 4 4 4 5 4 4 4 5 5 4 4 3 3 3 3 4 3 3 3 3 3 3 2 2 3 5 5 5 5 7 6 7 7 7 7 8 9
3 3 7 6 2 1 2 5 4 3 3 4 9 7 8 7 4 6 8 5 5 8 6 4 3 3 7 7 5 5 5 2 2 3 3 2 2 2 3 3 3 2 1 1 2 3 4 3 2 3 4 3 4 4 5 5 5 4 4 4 4 3 3 2 3 3 3 3 3 3 3 3 3 2 3 3 4 3 2 2 5 6 6 6 6 7 7
3 6 7 5 3 4 4 6 2 2 3 3 5 3 3 6 8 6 7 7 6 6 7 6 5 2 6 7 5 6 6 5 4 4 5 4 4 2 1 2 2 1 1 1 2 3 4 4 3 4 4 4 4 4 3 4 4 4 4 4 3 1 2 1 2 3 3 3 3 3 2 3 3 3 2 2 3 3 4 3 2 3 4 6 5 3 5
4 9 12 10 5 1 4 11 8 7 5 3 8 8 5 6 8 7 5 5 5 5 7 6 7 6 5 5 7 6 8 6 6 6 5 5 4 2 3 3 4 2 1 2 3 2 1 1 2 3 4 5 5 4 3 2 3 3 4 4 4 4 7 2 2 2 3 3 3 2 1 2 1 2 2 3 3 4 4 4 4 3 3 2 2 2 3
9 8 13 11 7 9 10 5 1 7 6 8 10 10 8 8 9 9 9 8 7 6 6 6 10 9 9 6 9 8 8 9 8 6 6 4 2 2 3 4 4 4 4 4 5 4 3 4 4 4 4 3 3 3 1 1 1 1 1 2 3 3 4 4 2 2 2 2 2 3 2 1 1 1 0 1 3 4 4 4 4 3 2 2 1 1 5
8 7 1 0 6 7 6 6 8 7 6 3 6 9 9 9 8 9 7 7 7 7 7 4 4 8 10 7 8 9 8 7 7 6 4 3 3 3 3 5 5 6 5 5 5 5 5 5 5 5 5 4 3 3 1 1 2 3 2 1 1 1 2 2 1 0 1 1 2 1 0 1 1 1 1 0 1 2 2 3 4 3 3 3 2 2 4
3 1 2 6 10 12 12 8 8 6 8 8 10 8 9 12 8 7 7 6 6 8 5 6 7 7 7 8 7 9 9 8 7 5 4 3 4 3 3 4 5 5 5 6 5 5 6 6 6 5 4 5 4 3 2 2 3 3 3 3 3 2 2 1 0 0 0 1 2 1 1 1 1 1 0 0 1 2 3 3 3 3 3 3 3 3 3
3 3 6 6 9 8 13 11 8 8 8 7 9 9 4 8 11 8 6 5 4 7 5 7 8 7 6 8 6 6 7 6 6 5 4 4 4 3 3 3 4 3 4 2 4 4 4 4 4 4 4 4 5 5 4 3 3 4 3 2 2 3 3 3 2 2 1 0 0 0 1 1 1 1 0 0 1 1 2 2 2 2 3 2 3 3 2
8 6 6 5 7 8 7 8 9 9 8 7 8 10 9 9 9 9 7 7 8 9 8 7 8 8 6 5 6 6 6 6 5 5 5 4 4 3 3 5 5 5 4 3 2 3 3 3 4 5 4 4 4 5 4 5 4 4 4 3 3 3 3 4 2 2 1 1 1 1 1 0 0 0 1 2 2 3 3 3 3 2 3 3 3 2 1
10 6 3 3 3 4 7 6 10 9 8 9 10 10 9 7 8 9 9 8 6 5 8 8 6 6 6 6 6 6 6 5 5 5 5 5 4 3 3 3 3 4 3 1 1 0 1 3 4 4 4 4 4 4 4 4 4 4 5 4 4 3 3 2 2 1 1 2 2 3 3 3 2 2 3 3 3 3 3 3 3 3 4 4 3 2 1
14 12 13 14 15 13 12 10 7 9 8 6 5 6 7 6 7 7 7 6 7 7 7 7 7 7 6 7 6 6 7 7 5 4 4 4 4 4 2 3 3 2 1 1 1 1 1 3 3 3 4 4 4 4 4 4 4 4 4 4 4 3 4 3 2 1 0 1 1 2 2 2 2 3 3 3 3 3 3 3 3 4 4 3 3 2 3
13 10 10 12 11 13 13 13 11 9 10 8 4 4 4 5 6 7 7 8 9 10 6 6 6 6 6 6 6 6 6 6 5 6 5 4 4 4 4 4 3 3 2 1 1 1 1 3 3 4 5 4 4 4 3 4 3 3 3 3 3 2 2 2 2 2 2 3 3 3 3 3 3 3 3 3 3 3 3 3 3 4 5 4 3 3 4
5 5 4 6 6 6 8 10 11 12 11 10 9 9 8 7 6 7 8 8 4 5 6 6 6 6 6 6 6 5 5 4 5 4 4 4 4 4 4 3 3 2 1 1 1 2 4 3 5 8 5 5 5 5 4 4 2 2 3 3 3 4 3 3 3 2 3 2 3 3 3 4 4 3 3 3 2 2 2 3 3 3 4 4 4 4 4
6 9 9 9 7 8 8 8 8 10 9 8 8 7 6 6 8 6 4 5 6 6 7 7 7 7 7 5 4 3 3 5 5 5 4 3 4 4 4 3 2 3 2 1 1 3 4 4 8 10 6 4 4 4 5 9 4 2 2 3 2 2 2 3 3 3 3 2 1 1 3 3 3 3 1 2 2 2 1 2 3 3 3 4 4 4 4
7 8 10 10 9 9 9 9 8 8 8 6 3 5 9 9 6 7 7 6 6 7 6 6 7 6 5 4 4 5 4 3 4 4 4 4 4 4 2 2 2 2 1 3 1 2 3 5 8 5 4 3 3 4 6 9 8 5 1 2 2 2 2 2 2 2 1 1 1 2 3 3 3 3 3 3 2 3 3 2 2 3 3 3 3 3 4
4 3 4 5 7 7 7 6 6 7 10 10 6 5 4 6 7 7 7 6 5 6 7 7 7 7 6 7 5 4 4 4 3 4 5 4 2 3 3 4 4 5 3 1 2 3 4 5 4 3 2 2 3 3 5 7 6 4 3 2 2 1 2 1 1 1 1 1 1 2 3 3 3 3 3 3 3 3 3 3 3 2 2 2 2 3 3
8 9 10 9 8 8 8 8 7 7 5 9 11 9 8 8 7 8 7 7 5 5 7 8 8 7 6 5 6 4 3 3 4 4 4 4 2 1 1 2 3 2 2 4 2 2 3 4 3 1 1 2 2 2 3 4 3 3 3 3 3 3 3 2 2 2 2 2 2 1 1 2 2 2 1 2 2 3 3 4 5 4 4 4 3 3 3
10 9 8 9 9 8 9 10 7 5 6 5 6 9 8 10 9 9 8 8 6 5 7 7 7 6 6 6 6 5 3 2 2 3 4 4 2 2 3 4 2 2 1 1 1 1 2 2 1 0 1 1 1 2 2 3 3 3 4 3 3 3 3 2 1 2 2 3 2 1 2 3 3 2 2 2 3 3 3 3 4 4 3 3 3 3 3
8 9 9 9 9 8 7 8 9 7 4 4 6 7 7 8 10 10 8 7 7 6 6 4 6 7 6 5 5 4 4 3 3 3 2 3 4 5 4 4 2 2 2 1 2 2 1 2 2 2 1 2 2 3 3 3 3 3 3 3 3 2 1 1 2 3 2 2 2 1 2 2 3 3 3 3 3 3 3 3 4 4 4 4 4 4 4
10 11 11 10 9 9 10 10 10 10 8 5 6 7 8 8 9 9 8 7 8 7 6 6 6 7 6 6 5 5 4 2 3 3 3 2 1 1 2 2 2 3 3 3 3 3 3 3 2 1 3 3 4 5 5 3 3 3 3 1 1 1 1 1 1 1 1 1 1 1 1 2 2 2 3 2 2 2 3 3 3 3 3 3 3 4 4
11 10 10 10 9 9 9 10 9 10 11 7 5 7 8 8 8 10 9 8 7 7 8 7 6 6 6 5 5 5 4 3 3 1 3 1 2 1 1 1 2 2 3 3 3 3 3 2 2 3 5 6 6 5 3 3 3 3 2 3 2 2 2 2 2 2 2 2 2 2 2 2 2 2 2 2 2 2 2 2 2 2 3 2 2 2 3
11 10 11 11 12 11 10 11 13 12 10 9 7 7 8 9 7 8 9 8 8 6 6 6 6 6 6 5 4 3 3 2 3 4 3 1 1 3 1 2 0 2 3 3 2 2 2 1 2 5 5 7 7 6 4 4 3 3 3 3 3 2 2 2 2 2 2 3 2 2 3 3 3 3 3 3 3 3 3 3 3 3 3 3 3 3 3
9 9 11 12 12 10 9 10 9 11 11 10 9 6 6 7 8 7 7 8 8 7 7 7 6 6 6 5 4 4 3 2 1 2 2 3 2 2 2 2 1 2 3 4 2 2 0 3 7 6 7 7 6 5 4 4 3 3 3 3 3 2 3 2 3 3 3 3 3 3 3 3 4 3 3 3 4 4 3 4 3 3 2 3 3 3 3
11 10 10 10 9 10 11 11 11 12 11 11 10 8 5 6 7 7 6 6 7 6 5 5 5 4 5 7 7 4 3 3 2 1 2 1 2 2 2 3 4 4 3 3 3 2 3 4 5 6 6 6 5 4 3 3 3 3 3 3 3 3 2 3 3 3 3 3 3 3 4 3 3 4 4 4 4 4 4 4 3 3 3 3 3 3 3
12 12 10 11 12 11 12 12 12 12 11 11 10 8 7 6 7 6 6 6 6 5 5 4 4 4 4 3 2 3 5 5 3 2 1 2 2 3 3 3 2 3 4 3 3 2 5 6 6 5 5 5 4 3 3 3 2 3 3 3 3 3 2 2 2 3 3 2 3 3 3 2 2 2 2 2 2 2 2 2 2 2 2 2 2 2 3
11 12 11 10 12 13 12 11 10 10 8 8 9 8 7 8 7 6 6 6 6 5 5 4 4 4 3 3 3 2 2 2 3 1 2 3 3 3 2 1 1 4 3 2 2 2 2 4 5 4 5 5 4 3 2 2 2 1 2 3 3 2 3 2 2 1 1 2 2 2 3 3 3 3 3 3 3 3 3 3 3 3 3 3 3 3 3
10 12 11 10 11 11 11 9 9 9 9 8 9 8 8 8 7 5 5 6 6 5 5 4 4 4 4 3 2 2 2 3 1 0 3 4 4 3 2 1 1 4 4 2 2 0 3 0 2 3 4 3 2 1 1 1 0 0 0 1 2 2 3 3 2 2 2 2 3 3 3 3 3 3 3 3 3 3 3 3 3 4 5 4 3 2 2
11 11 10 10 9 9 9 10 11 10 9 9 9 8 7 7 8 6 6 6 6 6 5 4 3 3 3 3 2 2 2 2 2 4 4 4 3 3 3 2 1 2 2 2 2 3 3 1 1 1 3 2 1 0 0 1 1 2 2 3 3 2 3 3 3 4 4 4 3 4 4 4 4 4 4 4 4 3 3 4 3 3 3 3 3 2 2
6 7 8 8 8 8 7 7 8 8 8 8 8 8 7 7 7 7 6 8 7 6 6 6 4 4 3 3 4 4 3 3 3 3 4 4 3 4 4 5 4 4 4 3 4 3 3 3 2 3 3 3 3 3 3 3 1 2 3 3 3 3 4 4 4 4 4 4 5 5 4 4 4 4 4 4 4 4 4 4 4 3 3 3 4 4 5
Wind_Direction
108 70 28 2 79 75 75 48 22 26 9 28 52 4 333 61 141 165 168 131 104 78 54 18 349 353 54 49 56 58 31 72 81 78 71 101 128 149 290 259 235 173 176 183 177 180 200 191 194 182 181 202 216 212 209 201 190 195 185 186 190 193 197 200 202 194 182 177 173 172 174 177 182 186 186 183 179 180 188 211 226 235 236 232 233 224 221
49 27 51 340 91 91 56 39 36 27 33 39 50 61 54 94 94 106 112 99 90 79 28 326 357 48 61 31 23 33 26 34 51 67 45 45 65 68 32 336 329 331 314 238 206 216 220 218 218 205 193 194 201 203 205 197 197 198 179 191 188 192 197 204 196 177 171 170 173 175 177 191 197 195 193 192 192 193 196 197 209 224 236 238 227 223 224
43 334 115 106 65 73 62 31 38 31 40 38 23 39 45 81 93 101 109 103 98 48 308 323 66 36 32 37 35 31 35 41 48 51 41 31 22 19 20 14 5 353 345 342 330 292 279 270 260 239 220 208 209 208 203 198 198 185 177 150 84 40 9 2 3 157 159 167 163 180 192 198 205 211 216 216 219 218 212 207 220 224 223 226 224 221 218
322 302 1 4 7 76 79 40 20 18 19 54 15 25 339 320 128 125 104 93 118 218 269 106 59 44 35 28 21 25 31 40 45 49 46 37 27 22 24 26 27 13 355 346 332 307 297 295 278 258 246 230 216 213 203 194 177 142 114 106 124 172 166 123 35 344 338 94 175 184 187 204 207 214 214 219 227 237 257 247 232 215 223 225 223 209 194
263 283 35 345 348 27 13 343 317 269 93 116 117 51 38 34 10 78 113 138 116 115 26 70 44 39 38 30 13 8 12 24 41 43 39 32 32 48 47 41 32 21 8 6 6 352 339 335 325 302 278 245 230 223 216 209 168 146 136 150 174 175 153 161 167 149 157 239 241 208 199 195 199 206 227 279 328 271 246 242 226 231 232 219 219 209 205
227 343 359 7 50 291 242 238 265 202 154 198 96 61 43 42 59 114 63 108 127 118 69 80 49 44 28 19 21 21 13 19 39 42 38 32 33 31 35 39 37 27 25 27 24 20 15 6 353 334 356 328 295 271 244 214 174 162 154 159 163 161 208 228 110 130 168 199 203 160 50 61 71 66 91 123 166 174 165 76 140 297 2 340 13 334 267
152 66 37 42 230 232 257 318 52 89 93 89 79 79 66 56 86 84 81 91 85 67 84 94 91 80 59 41 29 17 17 26 46 49 37 32 33 34 39 44 39 36 29 29 27 23 16 10 10 7 7 348 328 321 299 228 183 158 154 154 156 151 138 131 143 124 117 60 48 79 81 72 67 67 75 132 174 164 111 66 55 49 49 65 39 6 346
75 73 96 137 242 251 305 342 61 104 98 99 95 78 84 9 55 95 108 110 97 104 106 108 112 90 77 57 33 20 15 21 29 46 40 37 41 39 31 42 36 29 23 24 24 19 5 16 9 15 13 16 17 340 335 109 79 73 87 90 95 107 113 120 118 101 95 96 104 114 107 97 103 126 154 192 176 50 61 70 89 123 109 123 142 188 223
151 164 138 208 311 335 16 358 265 192 225 167 185 241 254 197 148 189 130 125 126 121 126 124 99 68 64 57 25 17 23 19 30 48 44 37 36 41 37 36 38 24 27 33 31 33 32 28 22 16 7 16 24 33 354 49 78 68 77 73 72 73 67 65 62 74 89 103 109 84 76 80 131 296 350 342 1 61 69 68 140 100 102 152 175 167 202
117 125 64 19 12 253 260 234 272 274 244 186 153 111 289 270 191 146 146 152 150 148 144 142 124 26 48 27 342 351 11 16 29 49 55 48 43 38 33 30 31 25 25 30 33 38 36 33 23 15 15 30 38 28 26 63 61 67 68 77 81 82 74 65 67 64 75 88 99 111 119 129 69 13 344 333 335 353 21 325 315 354 44 19 340 21 79
71 71 125 187 166 242 207 229 240 280 91 123 139 77 303 244 178 161 159 164 168 163 167 180 35 56 83 254 264 296 345 17 24 57 50 51 46 44 39 30 27 17 15 18 22 30 36 33 15 14 28 40 49 40 26 50 62 53 36 39 61 84 96 98 91 88 77 77 76 92 96 44 51 38 6 329 344 63 195 267 292 199 212 153 117 50 49
95 129 96 194 202 171 224 223 257 238 72 92 59 57 275 218 177 157 158 170 175 180 159 137 104 119 160 212 227 251 9 58 46 57 55 45 42 42 33 31 25 25 18 23 24 20 22 13 7 20 31 49 48 41 35 43 50 48 37 16 10 36 64 66 67 87 84 76 63 56 69 103 114 115 55 59 58 85 96 78 82 302 263 69 66 56 53
132 115 219 328 302 271 263 249 253 322 149 71 76 178 245 182 152 158 159 173 179 163 151 150 136 233 200 175 152 135 111 76 49 41 49 58 53 49 38 29 24 31 26 29 23 19 12 9 15 20 36 54 47 41 36 42 39 36 38 23 22 27 45 66 77 70 69 74 77 66 48 44 46 56 33 21 25 48 49 74 71 40 50 64 69 60 51
123 179 123 209 240 240 209 273 176 15 78 84 198 237 201 131 115 142 150 155 154 149 147 162 174 160 159 121 113 103 88 97 87 56 50 57 52 42 41 41 37 34 35 28 20 13 13 15 15 19 37 50 43 40 41 32 12 355 38 47 43 56 51 51 52 51 52 57 62 64 61 70 66 48 35 56 64 55 40 34 31 38 50 57 64 56 49
75 38 75 14 165 255 155 114 50 25 138 226 213 140 28 88 108 110 85 116 143 136 132 153 132 133 133 129 126 119 109 88 69 52 52 54 55 42 32 34 27 44 49 33 24 10 0 14 20 16 37 44 32 30 31 4 342 3 35 45 52 53 52 52 51 52 51 55 51 48 44 35 45 39 24 42 58 69 78 80 69 60 53 49 49 49 48
138 122 136 189 215 220 231 144 184 224 199 199 181 140 81 51 106 110 110 102 158 152 134 139 127 129 123 107 117 103 88 81 65 61 59 58 61 53 43 47 38 50 61 46 42 20 10 18 26 29 39 47 38 34 13 341 358 30 43 45 49 55 55 57 57 56 61 61 56 51 55 53 51 45 31 20 25 44 71 86 89 82 76 82 83 73 60
123 190 213 246 233 212 240 184 231 235 278 204 201 122 128 125 70 116 106 116 122 133 128 125 131 122 133 140 141 126 119 98 89 85 61 61 68 63 57 39 36 50 56 54 47 38 25 23 24 30 33 47 41 30 352 353 11 27 40 45 53 52 51 52 58 62 60 54 52 51 44 50 62 56 55 42 44 9 45 66 79 88 90 86 79 76 74
235 243 201 258 288 14 32 161 217 195 122 63 95 109 103 62 147 147 128 132 123 123 129 122 107 126 147 130 106 100 109 109 101 88 68 51 58 62 61 47 41 40 44 45 44 42 27 18 24 31 33 45 47 359 347 15 27 43 50 49 46 42 40 37 32 36 53 50 48 44 40 34 40 34 39 46 64 38 45 67 83 93 100 97 87 80 69
75 154 316 60 118 315 343 74 55 55 92 82 122 96 99 127 117 108 122 129 132 136 134 127 132 135 136 117 109 112 121 124 126 126 122 118 108 109 95 78 71 53 62 56 52 48 32 1 11 14 35 38 34 2 18 12 32 65 76 75 71 60 57 52 52 52 59 52 44 41 41 37 37 34 27 18 28 36 33 39 61 72 70 65 62 64 62
111 214 235 267 277 251 253 266 139 104 74 62 54 99 121 118 114 123 127 119 116 128 126 138 132 138 139 132 140 145 149 145 136 142 147 145 110 8 81 86 103 82 70 84 55 41 28 358 2 11 23 21 11 18 17 15 23 58 69 76 77 71 67 69 63 49 61 65 66 60 50 53 47 36 34 32 40 30 17 11 31 62 63 60 56 54 48
299 293 277 283 23 9 331 323 303 208 151 117 97 100 110 112 110 112 112 127 146 141 139 134 129 129 156 152 155 151 153 140 146 164 166 158 149 141 116 152 128 125 122 77 42 58 32 343 7 25 21 12 6 15 12 14 29 61 69 67 67 60 51 57 57 63 64 69 73 79 74 62 59 50 42 42 62 55 37 20 348 9 55 67 61 57 67
166 180 197 153 119 240 256 255 207 191 196 123 118 106 99 112 117 125 117 85 91 119 141 144 139 145 156 167 153 155 163 166 169 172 176 172 146 151 182 135 155 145 121 136 107 75 358 354 28 44 31 12 2 2 7 15 37 65 63 73 73 70 66 65 61 64 56 53 58 71 77 82 84 74 54 51 39 76 65 39 45 31 23 64 43 63 75
218 234 211 185 147 159 192 184 198 199 180 134 127 138 139 135 134 138 125 118 103 113 122 149 142 146 156 165 147 131 161 184 178 171 159 156 187 183 170 120 32 72 94 128 136 115 37 351 27 16 17 11 8 5 7 10 40 64 73 77 70 55 62 81 109 104 85 68 44 46 47 61 74 87 95 70 54 52 67 63 51 50 56 51 45 32 39
248 205 180 180 152 166 189 199 173 179 194 150 128 131 136 144 149 145 136 146 139 138 126 114 138 153 149 156 153 166 169 146 152 165 165 146 138 161 175 168 180 36 351 352 27 4 151 123 42 360 4 354 350 347 2 17 48 62 48 71 75 49 47 49 87 95 96 116 109 90 71 66 57 48 74 80 55 33 57 74 70 70 70 65 56 57 45
207 213 166 161 134 76 97 137 144 167 179 161 139 152 144 135 143 143 135 136 144 141 139 126 87 137 150 157 156 155 155 159 165 155 138 133 145 150 172 168 190 200 218 252 273 299 328 339 44 52 357 324 329 326 348 357 21 31 47 63 69 39 31 62 61 91 100 102 115 131 143 130 124 125 106 109 106 92 51 96 103 93 77 70 71 67 64
124 103 102 95 82 104 127 82 64 184 177 158 114 119 138 140 144 137 138 142 141 135 131 136 121 103 138 137 131 130 111 117 131 108 84 87 52 50 30 239 240 192 209 230 269 325 344 337 331 343 344 318 326 325 337 356 26 32 24 28 66 314 353 87 108 124 107 116 121 123 142 170 170 156 172 156 165 155 131 127 92 45 63 56 49 74 78
113 133 110 82 90 155 211 159 185 191 178 182 136 134 135 117 112 105 91 84 100 116 127 130 122 119 102 119 117 114 111 105 85 82 95 74 54 14 315 307 319 338 37 56 50 35 25 45 21 351 330 329 335 335 342 20 48 44 21 11 359 343 352 56 116 94 111 109 105 106 99 74 120 167 183 195 185 180 178 173 174 163 159 77 43 66 57
158 169 153 154 179 189 206 237 116 139 139 144 133 124 127 119 112 107 102 98 89 87 89 115 121 112 105 110 109 98 88 91 94 91 78 70 39 7 18 19 28 46 47 38 17 6 25 36 42 10 339 312 310 309 277 23 59 78 96 60 12 5 356 0 30 32 44 67 95 86 98 161 203 239 205 233 211 204 195 191 175 169 170 142 63 286 94
187 191 314 85 171 156 107 101 104 112 115 105 120 123 127 114 115 119 122 128 132 117 105 79 90 116 122 126 114 111 110 108 103 98 114 120 104 79 66 78 82 76 70 56 38 23 29 35 31 21 350 330 319 313 258 193 237 252 243 208 139 17 335 10 1 351 330 4 355 304 94 121 108 40 9 29 131 176 176 189 184 177 156 143 142 96 109
172 79 70 111 121 130 127 133 142 142 139 144 137 139 137 126 124 135 139 144 142 127 139 125 112 113 122 121 124 129 126 128 134 140 122 97 80 78 83 94 75 56 53 47 34 24 42 37 34 24 345 331 334 324 314 278 270 243 247 239 229 237 266 205 141 129 56 342 294 351 11 9 354 323 221 186 94 135 165 172 187 165 149 163 149 118 104
110 81 115 121 127 137 144 155 149 151 149 156 144 133 140 136 140 147 154 150 134 131 149 138 134 135 134 136 144 130 124 127 133 137 132 115 97 113 120 94 90 88 89 66 9 43 52 27 18 345 308 314 324 340 351 333 301 305 292 232 219 247 227 215 200 160 141 226 212 153 62 40 352 337 305 69 108 97 127 140 135 136 154 148 127 126 99
105 88 101 129 144 143 138 142 147 155 161 153 140 146 155 148 155 163 163 163 169 154 148 140 144 153 156 144 131 125 123 125 120 115 112 98 97 88 102 107 122 130 145 155 99 72 87 53 359 306 304 312 324 333 342 329 330 309 292 286 267 207 231 218 200 204 206 254 257 281 232 170 237 192 250 191 195 156 144 134 144 154 155 149 142 105 158
118 95 81 107 102 131 152 173 158 168 159 165 176 170 172 171 159 161 169 160 141 155 155 162 163 150 144 139 131 127 124 118 116 117 118 115 109 109 111 115 106 132 139 179 163 346 12 338 297 296 288 294 306 314 330 328 317 306 299 293 283 273 262 209 171 154 239 230 242 254 258 264 234 192 188 181 180 173 164 157 158 159 153 145 127 154 159
160 176 186 180 167 171 174 191 191 167 180 179 166 161 159 161 162 160 154 159 155 161 174 172 162 151 145 140 136 133 125 114 114 134 146 139 133 110 79 89 84 87 94 293 278 253 254 256 278 299 299 304 308 315 326 335 319 302 297 306 297 296 298 301 304 286 221 297 273 299 311 278 247 238 225 199 185 178 179 172 165 152 145 132 129 122 114
180 187 172 175 178 175 172 167 173 175 167 164 154 170 174 158 155 164 162 156 172 185 173 146 145 144 136 133 139 148 149 157 166 161 171 158 140 134 138 112 84 75 55 356 316 295 292 287 262 269 288 300 310 315 315 317 314 299 304 305 302 285 290 305 318 294 303 297 304 287 274 257 240 250 236 207 199 197 186 180 165 156 151 139 133 113 105
133 106 126 161 171 167 168 170 170 169 170 173 173 170 173 178 160 149 171 185 162 129 141 146 140 132 136 144 148 157 160 160 152 152 148 159 151 137 108 94 96 84 42 338 294 290 312 308 345 357 1 338 333 333 331 317 255 233 262 273 281 299 302 302 305 310 304 306 291 291 287 284 277 253 232 201 210 183 184 171 169 158 142 130 124 115 115
170 157 162 163 163 158 158 161 162 159 165 165 161 161 163 170 178 178 147 129 143 152 145 140 138 147 162 170 156 138 129 147 150 151 155 136 120 108 113 108 90 129 89 317 282 323 318 348 357 4 3 348 347 342 332 342 335 280 241 307 266 283 282 276 287 269 280 291 320 340 334 328 311 282 248 127 128 130 138 151 147 129 137 139 138 132 126
179 163 159 159 161 160 166 166 160 148 131 129 133 163 171 165 159 152 153 152 145 147 147 146 144 138 125 114 108 117 122 124 131 127 124 124 133 111 91 133 178 112 200 235 269 338 338 350 5 16 359 348 339 335 334 352 4 12 99 332 298 317 313 317 335 8 8 97 49 64 41 37 23 22 28 34 59 75 72 64 98 100 76 74 100 121 131
122 116 127 137 141 140 130 129 144 149 147 142 137 125 131 136 135 128 130 138 140 136 128 124 122 118 123 121 121 115 119 123 125 127 126 133 158 142 188 207 202 199 199 232 335 340 342 352 14 11 353 330 320 304 343 12 33 33 24 43 24 356 342 358 38 17 25 41 101 106 72 58 63 54 56 64 45 40 41 63 66 72 80 106 108 98 99
159 158 156 147 144 144 140 146 153 155 151 146 143 148 149 133 132 127 125 123 138 138 128 130 124 123 129 128 130 138 152 148 143 140 138 135 112 94 356 310 272 270 294 330 4 344 1 11 19 34 322 297 300 321 10 31 44 48 44 49 59 55 53 49 34 27 4 10 330 27 185 232 189 159 163 134 123 124 138 118 119 115 121 112 101 106 116
169 154 153 154 152 151 147 144 146 146 144 146 137 139 144 138 133 127 133 132 131 127 128 130 124 129 139 148 147 151 153 147 146 143 135 99 97 135 182 243 304 327 336 7 13 32 50 70 74 59 318 310 325 38 34 38 47 58 69 71 72 72 62 45 32 8 1 357 360 343 317 345 18 50 61 70 76 73 71 74 85 89 86 87 86 75 74
166 151 146 146 148 149 139 130 123 112 101 116 127 128 130 136 133 130 129 121 116 112 108 109 126 137 141 128 124 115 97 86 89 95 125 152 177 168 197 248 263 288 307 58 68 57 45 10 33 66 103 39 41 82 85 57 62 67 83 79 81 67 74 38 48 35 26 26 29 61 98 86 91 95 89 91 88 92 100 101 102 100 110 119 123 124 124
153 155 154 149 143 141 139 140 139 134 124 120 129 127 124 115 110 112 113 114 116 112 104 104 107 110 118 124 126 126 133 91 98 127 118 82 94 235 205 237 292 298 347 98 105 105 54 46 25 247 114 102 90 83 76 70 66 77 79 78 58 54 16 41 108 117 78 66 48 42 54 84 99 107 102 92 88 97 95 99 110 114 112 106 119 126 131
158 150 146 142 142 142 135 126 123 126 126 127 127 124 120 118 123 125 125 123 120 122 125 127 124 131 136 140 130 142 164 162 167 182 113 355 352 299 223 223 260 313 28 77 69 76 59 68 92 110 102 97 85 77 71 55 52 35 29 28 41 30 46 40 59 80 80 66 67 61 83 94 97 95 97 100 101 93 91 98 102 108 113 105 103 106 121
154 151 147 143 139 136 138 140 144 144 136 128 123 120 121 122 122 125 127 129 131 135 132 138 145 148 152 158 153 160 160 163 158 137 119 107 317 297 269 231 58 63 62 84 81 85 116 223 151 108 92 84 79 69 50 40 30 34 34 42 43 56 53 55 69 72 80 82 78 77 86 87 99 106 112 118 126 130 135 133 133 139 142 146 149 152 156
137 136 136 135 140 143 139 127 117 118 121 120 109 105 117 127 128 129 129 133 139 149 156 155 152 157 145 121 105 107 92 73 120 164 169 162 171 228 248 132 112 111 101 95 75 66 296 126 99 84 78 75 71 69 61 55 55 59 52 49 52 66 73 77 84 95 101 102 101 99 94 104 105 113 122 122 127 132 131 133 129 137 151 154 158 157 158
132 131 135 128 118 118 120 121 126 122 121 123 130 138 143 135 132 135 140 140 139 141 142 141 138 142 146 143 137 118 114 93 50 205 177 202 232 211 124 109 102 98 88 87 87 102 92 95 97 95 91 87 80 76 79 83 77 77 70 72 66 76 93 108 100 104 109 121 128 134 136 134 132 136 134 134 134 137 140 142 144 152 157 154 156 161 163
137 134 133 131 128 129 127 130 132 139 146 149 147 143 146 141 138 135 133 125 121 121 124 125 128 136 150 149 157 152 152 148 127 298 164 101 77 85 76 65 91 123 108 90 79 68 114 114 114 108 101 84 73 69 71 74 78 79 91 94 88 73 72 75 107 130 124 119 102 78 73 85 91 93 97 115 131 122 120 135 139 138 156 166 183 189 193
133 131 130 129 133 139 139 141 139 139 140 138 136 143 147 140 132 128 123 118 119 124 134 141 142 151 156 175 173 156 175 158 127 185 221 154 140 134 177 357 183 132 110 114 81 9 64 117 120 123 112 94 78 70 42 31 59 86 129 136 136 145 141 138 140 11 163 139 147 148 143 158 164 158 161 157 156 162 165 166 177 177 188 192 205 205 205
127 125 131 140 144 147 146 142 147 146 144 144 143 145 146 134 128 141 140 140 146 141 140 152 166 166 161 184 160 168 169 189 193 132 143 155 156 157 155 127 124 154 153 143 151 191 328 152 173 140 118 104 113 90 14 127 193 85 300 208 177 171 180 180 197 179 161 188 198 189 198 194 189 199 189 176 180 184 189 182 184 200 201 199 200 197 186
145 147 151 152 149 149 150 148 147 146 148 147 144 143 145 149 148 148 149 148 141 143 156 172 194 201 193 207 229 196 170 169 177 170 150 163 168 178 173 174 209 194 182 171 188 210 221 206 262 138 142 168 147 233 259 256 238 235 213 223 224 208 208 197 189 196 206 198 203 212 209 204 202 206 203 204 202 199 200 200 199 203 207 209 201 186 185
116 122 122 123 124 122 118 121 128 132 134 138 141 147 151 146 141 140 144 157 157 162 160 154 199 239 194 192 192 206 183 170 170 161 163 165 170 183 203 202 203 220 204 184 195 213 209 237 242 215 197 203 205 232 269 281 209 210 227 223 223 226 227 224 213 212 211 212 205 209 217 209 200 211 213 208 209 206 205 206 209 207 208 204 193 192 192